Weather History for Gastonia, NC

Change the Weather History Date:

Saturday, October 13, 2012

  Actual Average (KCLT) Record (KCLT)
Temperature  
Mean Temperature 57 °F 61 °F  
Max Temperature 66 °F 73 °F 91 °F (1954)
Min Temperature 48 °F 50 °F 35 °F (1964)
Degree Days  
Heating Degree Days 8 5  
Month to date heating degree days 49  
Since 1 July heating degree days 72  
Cooling Degree Days 0 1  
Month to date cooling degree days 26  
Year to date cooling degree days 1501  
Growing Degree Days 7 (Base 50)    
Moisture  
Dew Point 45 °F    
Average Humidity 69    
Maximum Humidity 90    
Minimum Humidity 46    
Precipitation  
Precipitation 0.00 in 0.12 in 1.93 in (1893)
Month to date precipitation 1.53  
Year to date precipitation 33.37  
Snow  
Snow 0.00 in 0.00 in 0.00 in ()
Month to date snowfall 0.0  
Since 1 July snowfall 0.0  
Since 1 September snowfall 0.0  
Snow Depth -    
Sea Level Pressure  
Sea Level Pressure 30.39 in    
Wind  
Wind Speed 6 mph (NE)    
Max Wind Speed 13 mph    
Max Gust Speed -    
Visibility 10 miles    
Events      
T = Trace of Precipitation, MM = Missing Value Source: NWS Daily Summary

Daily Weather History Graph

Daily Weather History Graph

Search for Another Location

Airport:

Trip Planner

Search our weather history database for the weather conditions in past years. The results will help you decide how hot, cold, wet, or windy it might be!

Date:

Astronomy

Oct. 13, 2012 Rise Set
Actual Time 7:29 AM EDT 6:51 PM EDT
Civil Twilight 7:03 AM EDT 7:16 PM EDT
Nautical Twilight 6:34 AM EDT 7:46 PM EDT
Astronomical Twilight 6:05 AM EDT 8:15 PM EDT
Moon 5:21 AM EDT (10/13) 5:32 PM EDT (10/13)
Length of Visible Light 12h 13m
Length of Day
11h 22m
Waning Crescent, 5% of the Moon is Illuminated
Oct 13
Waning Crescent
Oct 15
New
Oct 21
First Quarter
Oct 29
Full
Nov 6
Last Quarter

Hourly Weather History & Observations

Time (EDT) Temp. Dew Point Humidity Pressure Visibility Wind Dir Wind Speed Gust Speed Precip Events Conditions
12:54 AM 57.0 °F 52.0 °F 83% 30.31 in 10.0 mi Variable 4.6 mph - N/A   Clear
1:54 AM 54.0 °F 51.1 °F 90% 30.32 in 10.0 mi NNE 3.5 mph - N/A   Clear
2:54 AM 55.0 °F 50.0 °F 83% 30.33 in 10.0 mi NNE 5.8 mph - N/A   Scattered Clouds
3:54 AM 55.0 °F 48.0 °F 77% 30.35 in 10.0 mi NE 12.7 mph - N/A   Overcast
4:54 AM 52.0 °F 46.9 °F 83% 30.38 in 10.0 mi NE 10.4 mph - N/A   Clear
5:54 AM 50.0 °F 46.0 °F 86% 30.40 in 10.0 mi NNE 6.9 mph - N/A   Clear
6:54 AM 48.9 °F 43.0 °F 80% 30.43 in 10.0 mi NNE 9.2 mph - N/A   Clear
7:54 AM 48.0 °F 41.0 °F 77% 30.45 in 10.0 mi NNE 5.8 mph - N/A   Clear
8:54 AM 51.1 °F 41.0 °F 68% 30.46 in 10.0 mi NNE 6.9 mph - N/A   Clear
9:54 AM 54.0 °F 39.0 °F 57% 30.47 in 10.0 mi ENE 10.4 mph - N/A   Partly Cloudy
10:54 AM 57.0 °F 39.0 °F 51% 30.48 in 10.0 mi NE 10.4 mph - N/A   Mostly Cloudy
11:54 AM 59.0 °F 39.9 °F 49% 30.47 in 10.0 mi NE 8.1 mph - N/A   Overcast
12:02 PM 59.0 °F 39.2 °F 48% 30.47 in 10.0 mi East 8.1 mph - N/A   Mostly Cloudy
12:54 PM 61.0 °F 41.0 °F 48% 30.44 in 10.0 mi Variable 3.5 mph - N/A   Clear
1:54 PM 63.0 °F 42.1 °F 46% 30.40 in 10.0 mi NE 6.9 mph - N/A   Clear
2:54 PM 64.9 °F 44.1 °F 47% 30.37 in 10.0 mi Calm Calm - N/A   Clear
4:54 PM 66.0 °F 46.0 °F 48% 30.34 in 10.0 mi SSE 5.8 mph - N/A   Clear
5:54 PM 64.9 °F 46.0 °F 50% 30.33 in 10.0 mi East 8.1 mph - N/A   Clear
6:54 PM 59.0 °F 50.0 °F 72% 30.34 in 10.0 mi Calm Calm - N/A   Clear
7:54 PM 54.0 °F 51.1 °F 90% 30.35 in 10.0 mi Calm Calm - N/A   Clear
8:54 PM 53.1 °F 48.9 °F 86% 30.36 in 10.0 mi Calm Calm - N/A   Clear
10:54 PM 51.1 °F 48.0 °F 89% 30.35 in 10.0 mi Calm Calm - N/A   Clear